| time (UTC) | temp C | wind direction | speed KPH | gust KPH | rain 1hr cm | rain 24hr cm | rain mn cm | humidity % | barometer mb |
| 20260502205005 | 16 | 230 | 0.0 | 0.0 | 0.00 | 0.41 | 0.41 | 88 | 1008.6 |
| 20260502203005 | 16 | 270 | 6.4 | 16.1 | 0.00 | 0.41 | 0.41 | 86 | 1008.4 |
| 20260502202005 | 16 | 243 | 0.0 | 9.7 | 0.00 | 0.41 | 0.41 | 87 | 1008.3 |
| 20260502201006 | 17 | 248 | 8.0 | 12.9 | 0.00 | 0.41 | 0.41 | 87 | 1008.1 |
| 20260502200005 | 17 | 266 | 9.7 | 11.3 | 0.00 | 0.41 | 0.41 | 87 | 1007.9 |
| 20260502195005 | 17 | 275 | 0.0 | 9.7 | 0.00 | 0.41 | 0.41 | 90 | 1007.8 |
| 20260502194005 | 17 | 275 | 3.2 | 11.3 | 0.00 | 0.41 | 0.41 | 88 | 1007.7 |
| 20260502193005 | 17 | 270 | 0.0 | 11.3 | 0.08 | 0.41 | 0.41 | 92 | 1007.7 |
| 20260502192005 | 18 | 230 | 0.0 | 1.6 | 0.18 | 0.41 | 0.41 | 92 | 1007.6 |
| 20260502191005 | 18 | 338 | 0.0 | 0.0 | 0.20 | 0.41 | 0.41 | 93 | 1007.6 |
| 20260502190005 | 18 | 338 | 0.0 | 0.0 | 0.20 | 0.41 | 0.41 | 95 | 1007.6 |
| 20260502185005 | 18 | 270 | 0.0 | 3.2 | 0.23 | 0.41 | 0.41 | 95 | 1007.5 |
| 20260502184005 | 18 | 270 | 0.0 | 0.0 | 0.23 | 0.41 | 0.41 | 94 | 1007.5 |
| 20260502183005 | 18 | 315 | 0.0 | 0.0 | 0.15 | 0.33 | 0.33 | 91 | 1007.4 |
| 20260502182005 | 18 | 68 | 0.0 | 4.8 | 0.05 | 0.23 | 0.23 | 86 | 1007.4 |
| 20260502164005 | 22 | 294 | 4.8 | 9.7 | 0.00 | 0.18 | 0.18 | 65 | 1007.9 |
| 20260502163005 | 23 | 230 | 3.2 | 9.7 | 0.00 | 0.18 | 0.18 | 60 | 1008.1 |
| 20260502161005 | 23 | 315 | 4.8 | 4.8 | 0.00 | 0.18 | 0.18 | 61 | 1008.3 |
| 20260502151005 | 22 | 238 | 0.0 | 1.6 | 0.08 | 0.18 | 0.18 | 71 | 1009.1 |
| 20260502123004 | 18 | 220 | 11.3 | 16.1 | 0.00 | 0.00 | 0.00 | 78 | 1010.6 |
| 20260502122005 | 18 | 220 | 14.5 | 16.1 | 0.00 | 0.00 | 0.00 | 79 | 1010.5 |
| 20260502121005 | 18 | 319 | 3.2 | 12.9 | 0.00 | 0.00 | 0.00 | 77 | 1010.6 |
| 20260502115005 | 18 | 248 | 9.7 | 16.1 | 0.00 | 0.00 | 0.00 | 73 | 1010.5 |
| 20260502114005 | 18 | 248 | 14.5 | 16.1 | 0.00 | 0.00 | 0.00 | 72 | 1010.5 |
| 20260502113005 | 18 | 263 | 16.1 | 24.1 | 0.00 | 0.00 | 0.00 | 71 | 1010.6 |
| 20260502112004 | 20 | 248 | 8.0 | 14.5 | 0.00 | 0.00 | 0.00 | 58 | 1010.5 |
| 20260502110004 | 21 | 270 | 8.0 | 11.3 | 0.00 | 0.00 | 0.00 | 54 | 1010.6 |
| 20260502105004 | 22 | 186 | 6.4 | 8.0 | 0.00 | 0.00 | 0.00 | 51 | 1010.5 |
| 20260502102005 | 21 | 138 | 4.8 | 8.0 | 0.00 | 0.00 | 0.00 | 51 | 1010.6 |
| 20260502101005 | 21 | 264 | 4.8 | 9.7 | 0.00 | 0.00 | 0.00 | 56 | 1010.5 |
| 20260502071004 | 17 | 225 | 0.0 | 0.0 | 0.00 | 0.00 | 0.00 | 76 | 1010.4 |
| 20260502070004 | 16 | 225 | 0.0 | 0.0 | 0.00 | 0.00 | 0.00 | 81 | 1010.5 |
| 20260502065004 | 15 | 248 | 0.0 | 0.0 | 0.00 | 0.00 | 0.00 | 84 | 1010.5 |
| 20260502064004 | 15 | 270 | 0.0 | 0.0 | 0.00 | 0.00 | 0.00 | 89 | 1010.5 |
| 20260502063004 | 13 | 114 | 0.0 | 0.0 | 0.00 | 0.00 | 0.00 | 95 | 1010.5 |
| 20260502062005 | 13 | 202 | 0.0 | 0.0 | 0.00 | 0.00 | 0.00 | 97 | 1010.6 |
| 20260502061005 | 13 | 242 | 0.0 | 0.0 | 0.00 | 0.00 | 0.00 | 97 | 1010.1 |
| 20260502060004 | 13 | 13 | 0.0 | 0.0 | 0.00 | 0.00 | 0.00 | 96 | 1009.9 |
| 20260502055005 | 13 | 107 | 0.0 | 0.0 | 0.00 | 0.00 | 0.00 | 95 | 1009.9 |
| 20260502053004 | 13 | 118 | 0.0 | 0.0 | 0.00 | 0.00 | 0.00 | 94 | 1009.9 |
| 20260502052005 | 13 | 115 | 0.0 | 0.0 | 0.00 | 0.00 | 0.00 | 94 | 1009.9 |
| 20260502050006 | 13 | 181 | 0.0 | 0.0 | 0.00 | 0.00 | 0.00 | 93 | 1010.1 |
| 20260502045006 | 13 | 200 | 0.0 | 0.0 | 0.00 | 0.00 | 0.00 | 91 | 1010.1 |
| 20260502043005 | 14 | 118 | 0.0 | 0.0 | 0.00 | 0.00 | 0.00 | 89 | 1010.1 |
| 20260502042006 | 14 | 160 | 0.0 | 0.0 | 0.00 | 0.00 | 0.00 | 89 | 1010.3 |
| 20260502041005 | 14 | 179 | 0.0 | 1.6 | 0.00 | 0.00 | 0.00 | 89 | 1010.6 |
| 20260502040005 | 14 | 200 | 0.0 | 0.0 | 0.00 | 0.00 | 0.00 | 89 | 1010.4 |
| 20260502035006 | 14 | 196 | 0.0 | 0.0 | 0.00 | 0.00 | 0.00 | 88 | 1010.4 |
| 20260502034005 | 14 | 197 | 0.0 | 0.0 | 0.00 | 0.00 | 0.00 | 88 | 1010.4 |
| 20260502033006 | 14 | 188 | 0.0 | 0.0 | 0.00 | 0.00 | 0.00 | 88 | 1010.6 |
| 20260502032005 | 14 | 199 | 0.0 | 0.0 | 0.00 | 0.00 | 0.00 | 89 | 1010.4 |
| 20260502031005 | 15 | 189 | 0.0 | 0.0 | 0.00 | 0.00 | 0.00 | 88 | 1010.4 |
| 20260502030005 | 15 | 185 | 0.0 | 0.0 | 0.00 | 0.00 | 0.00 | 87 | 1010.6 |
| 20260502025006 | 15 | 175 | 0.0 | 0.0 | 0.00 | 0.00 | 0.00 | 87 | 1010.5 |
| 20260502024006 | 15 | 178 | 0.0 | 0.0 | 0.00 | 0.00 | 0.00 | 86 | 1010.5 |
| 20260502023005 | 15 | 77 | 0.0 | 0.0 | 0.00 | 0.00 | 0.00 | 85 | 1010.3 |
| 20260502022006 | 15 | 140 | 0.0 | 0.0 | 0.00 | 0.00 | 0.00 | 85 | 1010.4 |
| 20260502021006 | 15 | 180 | 0.0 | 9.7 | 0.00 | 0.00 | 0.00 | 84 | 1010.9 |
| 20260502020006 | 15 | 180 | 0.0 | 8.0 | 0.00 | 0.00 | 0.00 | 82 | 1010.8 |
| 20260502015006 | 15 | 211 | 0.0 | 0.0 | 0.00 | 0.00 | 0.00 | 80 | 1010.8 |
| 20260502014005 | 15 | 176 | 0.0 | 0.0 | 0.00 | 0.00 | 0.00 | 79 | 1010.8 |
| 20260502013005 | 15 | 195 | 0.0 | 0.0 | 0.00 | 0.00 | 0.00 | 78 | 1011.0 |
| 20260502012005 | 15 | 172 | 0.0 | 0.0 | 0.00 | 0.00 | 0.00 | 78 | 1011.2 |
| 20260502011005 | 15 | 202 | 0.0 | 0.0 | 0.00 | 0.00 | 0.00 | 78 | 1011.4 |
| 20260502010005 | 15 | 187 | 0.0 | 0.0 | 0.00 | 0.00 | 0.00 | 77 | 1011.2 |
| 20260502004005 | 15 | 139 | 0.0 | 1.6 | 0.00 | 0.00 | 0.00 | 74 | 1011.3 |
| 20260502003006 | 16 | 180 | 0.0 | 0.0 | 0.00 | 0.00 | 0.00 | 73 | 1011.5 |
| 20260502002005 | 16 | 169 | 0.0 | 0.0 | 0.00 | 0.00 | 0.00 | 73 | 1011.5 |
| 20260502001005 | 16 | 175 | 0.0 | 0.0 | 0.00 | 0.00 | 0.00 | 72 | 1011.6 |
| 20260502000006 | 16 | 182 | 0.0 | 0.0 | 0.00 | 0.00 | 0.00 | 72 | 1011.4 |
| 20260501235006 | 16 | 143 | 0.0 | 0.0 | 0.00 | 0.00 | 0.00 | 72 | 1011.7 |
| 20260501234005 | 16 | 167 | 0.0 | 0.0 | 0.00 | 0.00 | 0.00 | 74 | 1011.9 |
| 20260501233005 | 16 | 208 | 0.0 | 0.0 | 0.00 | 0.00 | 0.00 | 80 | 1011.9 |
| 20260501232005 | 16 | 237 | 0.0 | 0.0 | 0.00 | 0.00 | 0.00 | 80 | 1011.9 |
| 20260501231005 | 16 | 82 | 0.0 | 0.0 | 0.00 | 0.00 | 0.00 | 79 | 1011.8 |
| 20260501230005 | 16 | 57 | 0.0 | 9.7 | 0.00 | 0.00 | 0.00 | 79 | 1011.6 |
| 20260501225005 | 16 | 84 | 4.8 | 14.5 | 0.00 | 0.00 | 0.00 | 78 | 1011.7 |
| 20260501224005 | 16 | 55 | 0.0 | 0.0 | 0.00 | 0.00 | 0.00 | 78 | 1011.8 |
| 20260501223005 | 16 | 54 | 0.0 | 1.6 | 0.00 | 0.00 | 0.00 | 77 | 1011.9 |
| 20260501222005 | 16 | 68 | 1.6 | 11.3 | 0.00 | 0.00 | 0.00 | 76 | 1011.8 |
| 20260501221005 | 16 | 26 | 0.0 | 0.0 | 0.00 | 0.00 | 0.00 | 76 | 1011.7 |
| 20260501215006 | 16 | 49 | 9.7 | 11.3 | 0.00 | 0.00 | 0.00 | 73 | 1011.8 |
| 20260501214005 | 16 | 66 | 1.6 | 11.3 | 0.00 | 0.00 | 0.00 | 71 | 1011.8 |
| 20260501213005 | 17 | 49 | 8.0 | 11.3 | 0.00 | 0.00 | 0.00 | 70 | 1011.6 |